Weather History for Cut Bank, MT

Change the Weather History Date:

Saturday, March 30, 2013

  Actual Average Record
Temperature  
Mean Temperature 46 °F 36 °F  
Max Temperature 59 °F 48 °F 77 °F (2004)
Min Temperature 32 °F 25 °F -22 °F (1936)
Degree Days  
Heating Degree Days 19 29  
Month to date heating degree days 1030 1013  
Since 1 July heating degree days 6769 7073  
Cooling Degree Days 0 0  
Month to date cooling degree days 0 0  
Year to date cooling degree days 0 0  
Moisture  
Dew Point 24 °F    
Average Humidity 50    
Maximum Humidity 75    
Minimum Humidity 24    
Precipitation  
Precipitation 0.00 in 0.02 in 0.81 in (1981)
Month to date precipitation 0.57 0.48  
Year to date precipitation 1.30 0.89  
Snow  
Snow 0.00 in - - ()
Snow Depth 0.00 in    
Sea Level Pressure  
Sea Level Pressure 30.13 in    
Wind  
Wind Speed 12 mph (West)    
Max Wind Speed 20 mph    
Max Gust Speed 25 mph    
Visibility 10 miles    
Events      
T = Trace of Precipitation, MM = Missing Value Source: NWS Daily Summary

Daily Weather History Graph

Daily Weather History Graph

Search for Another Location

Airport:

Trip Planner

Search our weather history database for the weather conditions in past years. The results will help you decide how hot, cold, wet, or windy it might be!

Date:

Astronomy

Mar. 30, 2013 Rise Set
Actual Time 7:10 AM MDT 7:57 PM MDT
Civil Twilight 6:39 AM MDT 8:29 PM MDT
Nautical Twilight 6:01 AM MDT 9:07 PM MDT
Astronomical Twilight 5:21 AM MDT 9:47 PM MDT
Moon No Moon Rise 8:50 AM MDT (3/30)
Length of Visible Light 13h 50m
Length of Day
12h 46m
Waning Gibbous, 86% of the Moon is Illuminated
Mar 30
Waning Gibbous
Apr 2
Last Quarter
Apr 10
New
Apr 18
First Quarter
Apr 25
Full

Hourly Weather History & Observations

Time (MDT) Temp. Windchill Dew Point Humidity Pressure Visibility Wind Dir Wind Speed Gust Speed Precip Events Conditions
12:56 AM 36.0 °F 27.5 °F 28.0 °F 73% 30.13 in 10.0 mi WNW 12.7 mph - N/A   Clear
1:56 AM 36.0 °F 27.5 °F 28.0 °F 73% 30.13 in 10.0 mi WNW 12.7 mph - N/A   Partly Cloudy
2:56 AM 33.1 °F 23.9 °F 27.0 °F 78% 30.12 in 10.0 mi WNW 12.7 mph - N/A   Clear
3:56 AM 33.1 °F 23.0 °F 27.0 °F 78% 30.14 in 10.0 mi WNW 15.0 mph - N/A   Clear
4:56 AM 36.0 °F 26.7 °F 28.0 °F 73% 30.14 in 10.0 mi WNW 15.0 mph - N/A   Clear
5:56 AM 36.0 °F 27.1 °F 27.0 °F 70% 30.14 in 10.0 mi West 13.8 mph - N/A   Clear
6:56 AM 32.0 °F 22.1 °F 25.0 °F 75% 30.17 in 10.0 mi WNW 13.8 mph - N/A   Clear
7:56 AM 36.0 °F 27.1 °F 26.1 °F 67% 30.20 in 10.0 mi WNW 13.8 mph - N/A   Clear
8:56 AM 42.1 °F 35.2 °F 27.0 °F 55% 30.21 in 10.0 mi WNW 12.7 mph - N/A   Clear
9:56 AM 48.9 °F - 21.0 °F 33% 30.21 in 10.0 mi NNW 17.3 mph - N/A   Clear
10:56 AM 52.0 °F - 19.0 °F 27% 30.21 in 10.0 mi NW 11.5 mph 19.6 mph N/A   Clear
11:56 AM 53.1 °F - 19.0 °F 26% 30.20 in 10.0 mi NW 10.4 mph 19.6 mph N/A   Clear
12:56 PM 54.0 °F - 19.9 °F 26% 30.20 in 10.0 mi West 9.2 mph 16.1 mph N/A   Partly Cloudy
1:56 PM 55.9 °F - 21.9 °F 27% 30.17 in 10.0 mi Variable 6.9 mph - N/A   Clear
2:56 PM 57.0 °F - 21.9 °F 26% 30.15 in 10.0 mi SSW 6.9 mph - N/A   Clear
3:56 PM 57.9 °F - 21.9 °F 25% 30.12 in 10.0 mi WSW 18.4 mph 25.3 mph N/A   Clear
4:56 PM 57.0 °F - 21.9 °F 26% 30.09 in 10.0 mi WSW 9.2 mph - N/A   Clear
5:56 PM 55.9 °F - 21.9 °F 27% 30.08 in 10.0 mi West 15.0 mph 21.9 mph N/A   Clear
6:56 PM 54.0 °F - 23.0 °F 30% 30.09 in 10.0 mi WSW 15.0 mph - N/A   Clear
7:56 PM 48.0 °F - 25.0 °F 41% 30.08 in 10.0 mi WSW 8.1 mph - N/A   Clear
8:56 PM 43.0 °F 40.3 °F 24.1 °F 47% 30.07 in 10.0 mi West 4.6 mph - N/A   Clear
9:56 PM 39.9 °F 35.8 °F 24.1 °F 53% 30.05 in 10.0 mi WSW 5.8 mph - N/A   Clear
10:56 PM 39.9 °F 34.5 °F 25.0 °F 55% 30.04 in 10.0 mi West 8.1 mph - N/A   Clear
11:56 PM 39.9 °F 33.4 °F 26.1 °F 58% 30.01 in 10.0 mi West 10.4 mph - N/A   Clear